Seattle, WA

3:21 PM PST on January 21, 2017 (GMT -0800)
Seattle/Tacoma International Airport

Weather History for KSEA - October, 2006

Change the Weather History Date:

Sunday, October 29, 2006

  Actual Average Record
Temperature  
Mean Temperature 46 °F 49 °F  
Max Temperature 52 °F 55 °F 65 °F (1986)
Min Temperature 39 °F 43 °F 31 °F (1970)
Degree Days  
Heating Degree Days 19 16  
Month to date heating degree days 336 347  
Since 1 July heating degree days 510 564  
Cooling Degree Days 0 0  
Month to date cooling degree days 0 0  
Year to date cooling degree days 270 189  
Moisture  
Dew Point 41 °F    
Average Humidity 85    
Maximum Humidity 100    
Minimum Humidity 70    
Precipitation  
Precipitation 0.55 in 0.16 in 1.24 in (1975)
Month to date precipitation 1.55 3.14  
Year to date precipitation 25.49 25.23  
Snow  
Snow 0.00 in - - ()
Month to date snowfall  
Since 1 July snowfall  
Snow Depth -    
Sea Level Pressure  
Sea Level Pressure 29.98 in    
Wind  
Wind Speed 11 mph (ESE)    
Max Wind Speed 28 mph    
Max Gust Speed 33 mph    
Visibility 7 miles    
Events Rain    
T = Trace of Precipitation, MM = Missing Value Source: NWS Daily Summary

Daily Weather History Graph

Daily Weather History Graph

Search for Another Location

Airport or City:

Trip Planner

Search our weather history database for the weather conditions in past years. The results will help you decide how hot, cold, wet, or windy it might be!

Date:

Astronomy

Oct. 29, 2006 Rise Set
Actual Time 6:48 AM PST 4:56 PM PST
Civil Twilight 6:16 AM PST 5:28 PM PST
Nautical Twilight 5:40 AM PST 6:04 PM PST
Astronomical Twilight 5:04 AM PST 6:40 PM PST
Moon 2:04 PM PST (10/29) 10:58 PM PST (10/29)
Length of Visible Light 11h 11m
Length of Day
10h 08m
Waxing Crescent, 49% of the Moon is Illuminated
Oct 29
Waxing Crescent
Oct 29
First Quarter
Nov 5
Full
Nov 12
Last Quarter
Nov 20
New

Hourly Weather History & Observations

Time (PST) Temp. Windchill Dew Point Humidity Pressure Visibility Wind Dir Wind Speed Gust Speed Precip Events Conditions
12:53 AM 48.9 °F - 44.1 °F 83% 30.00 in 10.0 mi SSW 13.8 mph - N/A   Partly Cloudy
1:53 AM 48.9 °F - 44.1 °F 83% 29.96 in 10.0 mi SSW 17.3 mph - N/A   Partly Cloudy
1:49 AM 51.8 °F - 42.8 °F 71% 29.93 in 10.0 mi South 12.7 mph - N/A   Mostly Cloudy
1:53 AM 51.1 °F - 43.0 °F 74% 29.95 in 10.0 mi South 12.7 mph - N/A   Mostly Cloudy
2:40 AM 51.8 °F - 46.4 °F 82% 29.91 in 10.0 mi SSW 18.4 mph 23.0 mph N/A   Overcast
2:53 AM 51.1 °F - 46.0 °F 83% 29.92 in 10.0 mi SSW 16.1 mph - N/A   Overcast
3:31 AM 50.0 °F - 46.4 °F 87% 29.90 in 10.0 mi SSW 15.0 mph - N/A   Overcast
3:53 AM 50.0 °F - 46.9 °F 89% 29.92 in 5.0 mi West 8.1 mph 17.3 mph 0.00 in Rain Rain
4:07 AM 48.2 °F - 48.2 °F 100% 29.90 in 2.5 mi West 8.1 mph - 0.01 in Rain Rain
4:25 AM 48.2 °F - 48.2 °F 100% 29.90 in 3.0 mi Variable 5.8 mph - 0.05 in Rain Rain
4:53 AM 46.9 °F - 46.0 °F 97% 29.92 in 2.5 mi ENE 5.8 mph - 0.14 in Rain Rain
5:46 AM 46.4 °F 41.1 °F 44.6 °F 93% 29.90 in 2.5 mi East 11.5 mph - 0.10 in Rain Rain
5:53 AM 46.9 °F - 45.0 °F 93% 29.93 in 3.0 mi ENE 16.1 mph - 0.11 in Rain Light Rain
6:48 AM 46.4 °F 41.5 °F 44.6 °F 93% 29.90 in 1.0 mi ESE 10.4 mph - 0.16 in Rain Light Rain
6:53 AM 46.0 °F 41.9 °F 44.1 °F 93% 29.93 in 1.0 mi SE 8.1 mph - 0.16 in Rain Light Rain
7:11 AM 44.6 °F 39.2 °F 44.6 °F 100% 29.92 in 1.0 mi SE 10.4 mph - 0.03 in Rain Rain
7:30 AM 44.6 °F 40.7 °F 44.6 °F 100% 29.92 in 1.0 mi SE 6.9 mph - 0.06 in Rain Light Rain
7:37 AM 44.6 °F 40.2 °F 42.8 °F 93% 29.93 in 2.0 mi SSE 8.1 mph - 0.08 in Rain Rain
7:45 AM 44.6 °F 40.7 °F 42.8 °F 93% 29.93 in 1.5 mi ESE 6.9 mph - 0.11 in Rain Rain
7:51 AM 44.6 °F 39.7 °F 42.8 °F 93% 29.92 in 2.0 mi SSE 9.2 mph - 0.13 in Rain Rain
7:53 AM 45.0 °F 40.1 °F 43.0 °F 93% 29.95 in 3.0 mi South 9.2 mph - 0.13 in Rain Rain
8:53 AM 46.0 °F 40.6 °F 42.1 °F 86% 29.96 in 10.0 mi ESE 11.5 mph - 0.01 in Rain Light Rain
9:53 AM 44.1 °F 37.7 °F 37.9 °F 79% 29.96 in 10.0 mi East 12.7 mph - 0.00 in Rain Light Rain
10:53 AM 44.1 °F 37.7 °F 37.9 °F 79% 29.96 in 10.0 mi East 12.7 mph - 0.00 in   Mostly Cloudy
11:13 AM 44.6 °F 38.1 °F 39.2 °F 81% 29.93 in 10.0 mi East 13.8 mph - N/A   Mostly Cloudy
11:53 AM 46.0 °F 41.9 °F 39.9 °F 79% 29.95 in 10.0 mi East 8.1 mph - N/A   Scattered Clouds
12:53 PM 48.0 °F - 39.9 °F 74% 29.94 in 10.0 mi ENE 9.2 mph - N/A   Scattered Clouds
1:53 PM 45.0 °F 37.1 °F 37.0 °F 74% 29.97 in 10.0 mi North 19.6 mph 24.2 mph 0.00 in Rain Light Rain
2:53 PM 43.0 °F 33.8 °F 37.0 °F 80% 30.03 in 8.0 mi North 23.0 mph 32.2 mph 0.00 in Rain Light Rain
3:53 PM 44.1 °F 37.7 °F 35.1 °F 71% 30.05 in 10.0 mi North 12.7 mph - 0.00 in   Mostly Cloudy
4:53 PM 43.0 °F 36.8 °F 36.0 °F 76% 30.07 in 10.0 mi North 11.5 mph - N/A   Scattered Clouds
5:53 PM 42.1 °F 37.1 °F 36.0 °F 79% 30.09 in 10.0 mi NNE 8.1 mph - N/A   Scattered Clouds
6:53 PM 41.0 °F 34.7 °F 35.1 °F 79% 30.11 in 10.0 mi North 10.4 mph - 0.00 in   Mostly Cloudy
7:53 PM 39.0 °F 34.0 °F 34.0 °F 82% 30.14 in 10.0 mi South 6.9 mph - N/A   Scattered Clouds
8:53 PM 39.9 °F 36.7 °F 35.1 °F 83% 30.16 in 10.0 mi North 4.6 mph - N/A   Partly Cloudy
9:53 PM 42.1 °F 36.6 °F 34.0 °F 73% 30.18 in 10.0 mi North 9.2 mph - N/A   Scattered Clouds
10:53 PM 41.0 °F 35.2 °F 32.0 °F 70% 30.20 in 10.0 mi NNE 9.2 mph - N/A   Clear